Time,TemperatureF,DewpointF,PressureIn,WindDirection,WindDirectionDegrees,WindSpeedMPH,WindSpeedGustMPH,Humidity,HourlyPrecipIn,Conditions,Clouds,dailyrainin,SoftwareType,DateUTC
2015-09-02 00:00:00,68.0,67.5,30.13,West,270,0.0,0.0,98,0.00,,,0.00,meteobridge,2015-09-02 04:00:00,
2015-09-02 00:05:00,68.0,67.5,30.13,West,270,0.0,0.0,98,0.00,,,0.00,meteobridge,2015-09-02 04:05:00,
2015-09-02 00:11:00,67.5,66.9,30.13,West,270,0.0,0.0,98,0.00,,,0.00,meteobridge,2015-09-02 04:11:00,
2015-09-02 00:16:00,67.5,66.9,30.13,West,270,0.0,0.0,98,0.00,,,0.00,meteobridge,2015-09-02 04:16:00,
2015-09-02 00:21:00,67.5,66.9,30.12,West,270,0.0,0.0,98,0.00,,,0.00,meteobridge,2015-09-02 04:21:00,
2015-09-02 00:26:00,67.5,66.9,30.13,West,270,0.0,0.0,98,0.00,,,0.00,meteobridge,2015-09-02 04:26:00,
2015-09-02 00:31:00,67.3,66.7,30.12,West,270,0.0,0.0,98,0.00,,,0.00,meteobridge,2015-09-02 04:31:00,
2015-09-02 00:37:00,67.3,66.7,30.13,West,270,1.6,1.6,98,0.00,,,0.00,meteobridge,2015-09-02 04:37:00,
2015-09-02 00:42:00,67.3,66.7,30.14,West,270,0.0,0.0,98,0.00,,,0.00,meteobridge,2015-09-02 04:42:00,
2015-09-02 00:47:00,66.7,66.2,30.14,West,270,0.0,0.0,98,0.00,,,0.00,meteobridge,2015-09-02 04:47:00,
2015-09-02 00:52:00,66.6,66.0,30.14,West,270,0.0,0.0,98,0.00,,,0.00,meteobridge,2015-09-02 04:52:00,
2015-09-02 00:58:00,66.6,66.0,30.13,West,270,0.0,0.0,98,0.00,,,0.00,meteobridge,2015-09-02 04:58:00,
2015-09-02 01:03:00,66.6,66.0,30.13,West,270,0.0,0.0,98,0.00,,,0.00,meteobridge,2015-09-02 05:03:00,
2015-09-02 01:08:00,66.4,65.8,30.13,West,270,0.0,0.0,98,0.00,,,0.00,meteobridge,2015-09-02 05:08:00,
2015-09-02 01:13:00,66.4,65.8,30.13,West,270,0.0,0.0,98,0.00,,,0.00,meteobridge,2015-09-02 05:13:00,
2015-09-02 01:19:00,66.4,65.8,30.13,West,270,0.0,0.0,98,0.00,,,0.00,meteobridge,2015-09-02 05:19:00,
2015-09-02 01:24:00,66.0,65.5,30.13,West,270,0.0,0.0,98,0.00,,,0.00,meteobridge,2015-09-02 05:24:00,
2015-09-02 01:29:00,66.6,66.0,30.12,SE,135,0.0,0.0,98,0.00,,,0.00,meteobridge,2015-09-02 05:29:00,
2015-09-02 01:34:00,66.6,66.0,30.13,SE,135,0.0,0.0,98,0.00,,,0.00,meteobridge,2015-09-02 05:34:00,
2015-09-02 01:40:00,66.6,66.0,30.12,SE,135,0.0,0.0,98,0.00,,,0.00,meteobridge,2015-09-02 05:40:00,
2015-09-02 01:45:00,66.6,66.0,30.13,SE,135,0.0,0.0,98,0.00,,,0.00,meteobridge,2015-09-02 05:45:00,
2015-09-02 01:50:00,66.6,66.0,30.13,SE,135,0.0,0.0,98,0.00,,,0.00,meteobridge,2015-09-02 05:50:00,
2015-09-02 01:56:00,66.4,65.8,30.13,SSE,157,0.0,0.0,98,0.00,,,0.00,meteobridge,2015-09-02 05:56:00,
2015-09-02 02:01:00,66.0,65.5,30.13,SSE,157,0.0,0.0,98,0.00,,,0.00,meteobridge,2015-09-02 06:01:00,
2015-09-02 02:06:00,66.0,65.5,30.13,SSE,157,0.0,0.0,98,0.00,,,0.00,meteobridge,2015-09-02 06:06:00,
2015-09-02 02:11:00,66.0,65.5,30.14,SSE,157,0.0,0.0,98,0.00,,,0.00,meteobridge,2015-09-02 06:11:00,
2015-09-02 02:16:00,65.8,65.3,30.12,SSE,157,0.0,0.0,98,0.00,,,0.00,meteobridge,2015-09-02 06:16:00,
2015-09-02 02:21:00,65.7,65.1,30.13,SSE,157,0.0,0.0,98,0.00,,,0.00,meteobridge,2015-09-02 06:21:00,
2015-09-02 02:26:00,65.7,65.1,30.12,SSE,157,0.0,0.0,98,0.00,,,0.00,meteobridge,2015-09-02 06:26:00,
2015-09-02 02:32:00,65.5,64.9,30.14,SSE,157,0.0,0.0,98,0.00,,,0.00,meteobridge,2015-09-02 06:32:00,
2015-09-02 02:37:00,65.3,64.8,30.13,SE,135,0.0,0.0,98,0.00,,,0.00,meteobridge,2015-09-02 06:37:00,
2015-09-02 02:42:00,65.3,64.8,30.13,SE,135,0.0,0.0,98,0.00,,,0.00,meteobridge,2015-09-02 06:42:00,
2015-09-02 02:47:00,65.5,64.9,30.13,SSE,157,0.0,0.0,98,0.00,,,0.00,meteobridge,2015-09-02 06:47:00,
2015-09-02 02:53:00,65.5,64.9,30.14,ESE,112,0.0,0.0,98,0.00,,,0.00,meteobridge,2015-09-02 06:53:00,
2015-09-02 02:59:00,65.5,64.9,30.13,ESE,112,0.0,0.0,98,0.00,,,0.00,meteobridge,2015-09-02 06:59:00,
2015-09-02 03:04:00,65.5,64.9,30.12,ESE,112,0.0,0.0,98,0.00,,,0.00,meteobridge,2015-09-02 07:04:00,
2015-09-02 03:09:00,65.5,64.9,30.13,ESE,112,0.0,-999.0,98,-99.99,,,0.00,Acu-Link.com,2015-09-02 07:09:00,
2015-09-02 03:15:00,65.3,64.8,30.11,ESE,112,0.0,0.0,98,0.00,,,0.00,meteobridge,2015-09-02 07:15:00,
2015-09-02 03:20:00,65.3,64.8,30.12,ESE,112,0.0,0.0,98,0.00,,,0.00,meteobridge,2015-09-02 07:20:00,
2015-09-02 03:26:00,65.3,64.8,30.11,ESE,112,0.0,0.0,98,0.00,,,0.00,meteobridge,2015-09-02 07:26:00,
2015-09-02 03:31:00,65.3,64.8,30.11,ESE,112,0.0,0.0,98,0.00,,,0.00,meteobridge,2015-09-02 07:31:00,
2015-09-02 03:36:00,64.9,64.4,30.12,ESE,112,0.0,0.0,98,0.00,,,0.00,meteobridge,2015-09-02 07:36:00,
2015-09-02 03:42:00,64.9,64.4,30.12,SSW,202,0.0,0.0,98,0.00,,,0.00,meteobridge,2015-09-02 07:42:00,
2015-09-02 03:47:00,64.8,64.2,30.12,SSW,202,0.0,0.0,98,0.00,,,0.00,meteobridge,2015-09-02 07:47:00,
2015-09-02 03:52:00,64.8,64.2,30.13,SSW,202,0.0,0.0,98,0.00,,,0.00,meteobridge,2015-09-02 07:52:00,
2015-09-02 03:57:00,64.6,64.0,30.13,SSW,202,0.0,0.0,98,0.00,,,0.00,meteobridge,2015-09-02 07:57:00,
2015-09-02 04:03:00,64.4,63.9,30.13,SSW,202,0.0,0.0,98,0.00,,,0.00,meteobridge,2015-09-02 08:03:00,
2015-09-02 04:08:00,64.0,63.5,30.13,SSW,202,0.0,0.0,98,0.00,,,0.00,meteobridge,2015-09-02 08:08:00,
2015-09-02 04:13:00,64.0,63.5,30.13,SSW,202,0.0,0.0,98,0.00,,,0.00,meteobridge,2015-09-02 08:13:00,
2015-09-02 04:18:00,64.4,63.9,30.14,South,180,0.0,0.0,98,0.00,,,0.00,meteobridge,2015-09-02 08:18:00,
2015-09-02 04:24:00,64.4,63.9,30.13,South,180,0.0,0.0,98,0.00,,,0.00,meteobridge,2015-09-02 08:24:00,
2015-09-02 04:29:00,64.8,64.2,30.12,South,180,0.0,0.0,98,0.00,,,0.00,meteobridge,2015-09-02 08:29:00,
2015-09-02 04:34:00,64.8,64.2,30.13,South,180,0.0,0.0,98,0.00,,,0.00,meteobridge,2015-09-02 08:34:00,
2015-09-02 04:39:00,64.6,64.0,30.12,South,180,0.0,0.0,98,0.00,,,0.00,meteobridge,2015-09-02 08:39:00,
2015-09-02 04:44:00,64.6,64.0,30.12,South,180,0.0,0.0,98,0.00,,,0.00,meteobridge,2015-09-02 08:44:00,
2015-09-02 04:50:00,64.0,63.5,30.13,South,180,0.0,0.0,98,0.00,,,0.00,meteobridge,2015-09-02 08:50:00,
2015-09-02 04:55:00,64.0,63.5,30.13,South,180,0.0,0.0,98,0.00,,,0.00,meteobridge,2015-09-02 08:55:00,
2015-09-02 05:00:00,64.0,63.5,30.13,South,180,0.0,0.0,98,0.00,,,0.00,meteobridge,2015-09-02 09:00:00,
2015-09-02 05:05:00,64.0,63.5,30.13,South,180,0.0,0.0,98,0.00,,,0.00,meteobridge,2015-09-02 09:05:00,
2015-09-02 05:10:00,64.0,63.5,30.13,South,180,0.0,0.0,98,0.00,,,0.00,meteobridge,2015-09-02 09:10:00,
2015-09-02 05:16:00,64.0,63.5,30.14,South,180,0.0,0.0,98,0.00,,,0.00,meteobridge,2015-09-02 09:16:00,
2015-09-02 05:21:00,64.0,63.5,30.13,South,180,0.0,0.0,98,0.00,,,0.00,meteobridge,2015-09-02 09:21:00,
2015-09-02 05:26:00,64.2,63.6,30.12,South,180,0.0,-999.0,98,-99.99,,,0.00,Acu-Link.com,2015-09-02 09:26:00,
2015-09-02 05:32:00,64.0,63.5,30.12,South,180,0.0,0.0,98,0.00,,,0.00,meteobridge,2015-09-02 09:32:00,
2015-09-02 05:37:00,63.9,63.3,30.12,SSW,202,0.0,0.0,98,0.00,,,0.00,meteobridge,2015-09-02 09:37:00,
2015-09-02 05:43:00,63.9,63.3,30.12,SSW,202,0.0,0.0,98,0.00,,,0.00,meteobridge,2015-09-02 09:43:00,
2015-09-02 05:48:00,63.9,63.3,30.13,SSW,202,0.0,0.0,98,0.00,,,0.00,meteobridge,2015-09-02 09:48:00,
2015-09-02 05:53:00,63.9,63.3,30.14,SSW,202,0.0,0.0,98,0.00,,,0.00,meteobridge,2015-09-02 09:53:00,
2015-09-02 05:58:00,63.9,63.3,30.13,SSW,202,0.0,0.0,98,0.00,,,0.00,meteobridge,2015-09-02 09:58:00,
2015-09-02 06:04:00,63.9,63.3,30.14,SSW,202,0.0,0.0,98,0.00,,,0.00,meteobridge,2015-09-02 10:04:00,
2015-09-02 06:09:00,63.9,63.3,30.14,SSW,202,0.0,0.0,98,0.00,,,0.00,meteobridge,2015-09-02 10:09:00,